Starlink 11247

operational
NORAD ID: 60720 Int'l Des: 2024-152 Owner: SPXS Country: US Constellation: starlink
LEOCIRCULAR

关于 Starlink 11247

正在加载描述...

实时位置

正在加载3D地球...

即将过境

高度历史

Altitude vs Time

uPlot chart will show altitude changes over time

两行轨道根数

1 60720U 24152A 25351.76560725 .00000706 00000-0 10680-4 0 9995
2 60720 53.1594 160.4343 0001084 86.0831 274.0311 15.69713812 75962
Epoch: Dec 17, 2025 • Age: 19 hours

当前状态

高度 363.8 km
速度 7.70 km/s
星下点 45.10°N, 77.01°W
发射日期 Aug 28, 2024
运行时间 1.3 years
类型 internet

技术详情

分类 Payload
质量 960.00 kg
干质量 910.00 kg
总质量 960.00 kg
长度 0.30 m
直径 4.10 m
跨度 29.00 m
形状 Box + pan
制造商 SPXS
平台类型 Starlink V2MD
阶段状态 In Orbit
所有者/国家 SPXS/US

大型星座

Loading constellations...